DELTA 1 R/B(1)

基本信息
目录编号:
10517
目录名称:
DELTA 1 R/B(1)
国际标识:
1977-118B
轨道中心:
EARTH
物体状态:
在轨
发射日期:
1977-12-15 UTC
国别:
美国 (US)
轨道信息
数据来源: 国际轨道数据
星历时间: 2026-07-13T13:09:42+0800
半长轴: 7458.772km
偏心率: 0.0812827
轨道倾角: 28.656°
近地点辐角: 86.590°
升交点赤经: 262.619°
平近点角: 282.719°
近地点: 474.365km
远地点: 1686.905km
周期: 106.847分钟
每日圈数: 13.477265
详细信息
发射场:
AFETR
轨道高度:
LEO
数据来源:
AOE Integration Group
参考系:
TEME
时间系统:
UTC
历元类型:
SGP4
2D轨道图
3D轨道图
轨道高度分析图
轨道倾角分析图
轨道综合分析图
查看轨道综合分析图